Location: Dehesa de la Cepeda
(40.6574°N, 4.3013°W)
Time: 09:48:52
(UTC+00:00)

Vanguard 2 Rocket - Pass Details

Date: 01 November 2021
Orbit: 555 x 3324 km, 32.9° (Epoch: 08 December)

Event Time Altitude Azimuth Distance (km) Brightness Sun altitude
Exits shadow 03:28:01 44° 203° (SSW) 3,706 9.6 -38.1°
Maximum altitude 03:33:03 53° 164° (SSE) 3,156 9.4 -37.2°
Drops below altitude 10° 03:45:24 10° 92° (E) 4,346 11.1 -34.9°
Sets 03:48:18 0° 88° (E) 5,025 11.7 -34.4°
